[[{"header":{"parameterUnit":"m.s-1","parameterCategory":2,"la1":30.2991,"la2":30.254,"lo1":-89.0895,"lo2":-89.0444,"dy":0.0017,"dx":0.0017,"nx":28,"ny":28,"refTime":"2023-11-03T21:00:00:Z","depth":"0","parameterNumber":2,"parameterNumberName":"U-component_of_CURRENTS"},"data":[0,0,0,0,0,0,0,0,0,0,0,0,0,0,0,0,0,0,0,0,0,0,0,0,0,0,0,0,0,0,0,0,0,0,0,0,0,0,0,0,0,0,0,0,0,0,0,0,0,0,0,0,0,0,0,0,0,0,-0.3589,-0.3589,0,-0.3506,-0.3505,-0.3503,-0.3442,-0.3441,-0.3441,-0.3441,-0.3302,-0.3299,-0.3295,0,0,0,0,0,0,0,0,0,0,0,0,0,-0.3588,-0.3589,-0.3589,-0.3589,-0.3588,-0.3506,-0.3505,-0.3503,-0.3442,-0.3441,-0.3441,-0.3441,-0.3303,-0.3299,-0.3295,0,0,0,0,0,0,0,0,0,0,0,0,0,-0.3552,-0.3589,-0.3589,-0.355,-0.3546,-0.3506,-0.3505,-0.3503,-0.3442,-0.3441,-0.3441,-0.3441,-0.3305,-0.33,-0.3295,-0.3269,0,0,-0.3279,-0.3276,0,0,0,0,0,0,0,0,-0.3555,-0.3552,-0.3556,-0.3553,-0.3548,-0.3487,-0.3453,-0.3423,-0.3442,-0.3478,-0.3441,-0.3441,-0.3361,-0.3351,-0.3332,-0.3263,-0.3257,-0.3278,-0.3275,-0.3273,-0.3271,0,0,0,0,0,0,0,-0.3557,-0.3555,-0.3553,-0.3556,-0.3551,-0.35,-0.3495,-0.3447,-0.3419,-0.3475,-0.3471,-0.3467,-0.3358,-0.3338,-0.3329,-0.3255,-0.3278,-0.3274,-0.327,-0.3268,-0.3192,-0.3194,0,0,0,0,0,0,-0.3581,-0.3558,-0.3556,-0.3551,-0.3554,-0.3501,-0.3495,-0.3504,-0.342,-0.3409,-0.3467,-0.3464,-0.3347,-0.3335,-0.3324,-0.3322,-0.3273,-0.3268,-0.3265,-0.3191,-0.3193,-0.3194,0,0,0,0,0,0,-0.3581,-0.3582,-0.3559,-0.3554,-0.3548,-0.3502,-0.3512,-0.3503,-0.3488,-0.3416,-0.3403,-0.3463,-0.3346,-0.3331,-0.3288,-0.3315,-0.3266,-0.3261,-0.319,-0.3192,-0.3193,-0.3297,0,0,0,0,0,0,-0.3582,-0.3583,-0.359,-0.3556,-0.3549,-0.3562,-0.3512,-0.3501,-0.3487,-0.3482,-0.3408,-0.3394,-0.3345,-0.3296,-0.3283,-0.3306,-0.3257,-0.3189,-0.3191,-0.3193,-0.3292,-0.3302,-0.331,0,0,0,0,0,-0.3582,-0.3606,-0.3591,-0.359,-0.3564,-0.3564,-0.3557,-0.3518,-0.3488,-0.3499,-0.3435,-0.3397,-0.33,-0.3292,-0.3276,-0.3299,-0.3188,-0.319,-0.3193,-0.3288,-0.33,-0.331,0,0,0,0,0,0,-0.3604,-0.3601,-0.3584,-0.3603,-0.3595,-0.3556,-0.3553,-0.3527,-0.3485,-0.3469,-0.3397,-0.338,-0.3359,-0.3313,-0.3306,-0.3286,-0.3243,-0.3243,-0.3321,-0.3332,-0.3341,-0.3375,-0.3252,0,0,0,0,0,-0.3615,-0.3631,-0.3619,-0.3631,-0.3631,-0.3591,-0.3581,-0.3561,-0.3522,-0.3503,-0.3448,-0.3392,-0.3356,-0.3331,-0.329,-0.3268,-0.3199,-0.3277,-0.3286,-0.3294,-0.3313,-0.3244,-0.3248,-0.3202,-0.3202,-0.3202,0,0,-0.3619,-0.3624,-0.3627,-0.3637,-0.3617,-0.3632,-0.3584,-0.3582,-0.3588,-0.3493,-0.3471,-0.3419,-0.3358,-0.334,-0.3327,-0.3303,-0.3262,-0.3298,-0.3305,-0.3319,-0.3247,-0.3251,-0.3255,-0.3204,-0.3203,-0.3203,0,0,-0.3654,-0.3649,-0.3678,-0.3681,-0.3677,-0.3659,-0.3668,-0.3637,-0.362,-0.3592,-0.3535,-0.3502,-0.3428,-0.3403,-0.3378,-0.3412,-0.3315,-0.34,-0.3467,-0.34,-0.3403,-0.3405,-0.328,-0.3271,-0.3402,-0.3402,-0.3402,0,-0.366,-0.3693,-0.3685,-0.3717,-0.3716,-0.3681,-0.3706,-0.3694,-0.3651,-0.3629,-0.36,-0.35,-0.3464,-0.3441,-0.3472,-0.3435,-0.3356,-0.343,-0.3412,-0.3413,-0.3413,-0.3285,-0.3272,-0.3407,-0.3406,-0.3406,-0.3405,0,-0.3716,-0.3739,-0.3756,-0.3784,-0.379,-0.3803,-0.3794,-0.3789,-0.375,-0.3714,-0.3673,-0.3612,-0.3551,-0.3549,-0.3526,-0.3522,-0.3448,-0.3432,-0.3385,-0.3424,-0.3285,-0.3271,-0.3415,-0.3413,-0.3411,-0.341,0,0,-0.3717,-0.3785,-0.3783,-0.3789,-0.3822,-0.3813,-0.3853,-0.3846,-0.3825,-0.3788,-0.3747,-0.3729,-0.3676,-0.3648,-0.3608,-0.3576,-0.3517,-0.3525,-0.3519,-0.3402,-0.3315,-0.3252,-0.3229,-0.3493,-0.3492,-0.3491,-0.3201,0,-0.3751,-0.3804,-0.3847,-0.3871,-0.3877,-0.3887,-0.3913,-0.3901,-0.3865,-0.3819,-0.377,-0.3702,-0.3718,-0.3667,-0.3658,-0.354,-0.3491,-0.3594,-0.3295,-0.3286,-0.3227,-0.3216,-0.3099,-0.2833,-0.3186,-0.3184,-0.3182,0,-0.3785,-0.3797,-0.3837,-0.387,-0.3877,-0.3894,-0.388,-0.3903,-0.3871,-0.384,-0.3798,-0.3728,-0.3681,-0.3679,-0.3524,-0.3581,-0.3482,-0.3394,-0.338,-0.3284,-0.3199,-0.2859,-0.2792,-0.2772,-0.3159,-0.316,-0.3162,0,-0.3722,-0.3791,-0.3806,-0.3815,-0.3854,-0.3864,-0.3883,-0.3878,-0.3848,-0.3822,-0.3746,-0.371,-0.3601,-0.3534,-0.3399,-0.3438,-0.3195,-0.3203,-0.3042,-0.3031,-0.2858,-0.2837,-0.2743,-0.3103,-0.3104,-0.3105,-0.3106,0,-0.3716,-0.3713,-0.3763,-0.3744,-0.3718,-0.3795,-0.376,-0.3786,-0.3775,-0.3681,-0.3724,-0.3603,-0.3562,-0.3419,-0.3356,-0.3138,-0.3144,-0.3045,-0.2967,-0.2887,-0.2872,-0.2789,-0.2835,-0.3094,-0.3096,-0.3098,-0.31,0,-0.3604,-0.3676,-0.3657,-0.3685,-0.3678,-0.3641,-0.3643,-0.3609,-0.3641,-0.3516,-0.3485,-0.3445,-0.3282,-0.3221,-0.3047,-0.3003,-0.279,-0.2778,-0.2671,-0.259,-0.2462,-0.2519,-0.2336,-0.2274,-0.2535,-0.2532,-0.253,0,-0.3532,-0.3514,-0.3533,-0.3498,-0.3493,-0.3459,-0.3427,-0.3498,-0.3439,-0.3373,-0.3269,-0.3142,-0.3011,-0.2779,-0.2698,-0.2547,-0.2596,-0.2353,-0.2455,-0.2437,-0.244,-0.2491,-0.2457,-0.2218,-0.2213,-0.2209,-0.2206,0,-0.3319,-0.3355,-0.3337,-0.3272,-0.3233,-0.3171,-0.3127,-0.307,-0.311,-0.3035,-0.289,-0.2806,-0.2645,-0.2467,-0.235,-0.2263,-0.2319,-0.2265,-0.2265,-0.2217,-0.2241,-0.2147,-0.24,-0.217,-0.2173,-0.2176,-0.2178,-0.2179,-0.3117,-0.3073,-0.3071,-0.2986,-0.294,-0.2825,-0.273,-0.2718,-0.2608,-0.247,-0.2506,-0.2365,-0.2295,-0.2132,-0.2053,-0.1918,-0.2022,-0.1869,-0.1932,-0.1979,-0.1972,-0.2148,-0.185,-0.1852,-0.1853,-0.1855,-0.1856,0,-0.2821,-0.2822,-0.2761,-0.2664,-0.2517,-0.258,-0.2464,-0.2364,-0.2196,-0.2156,-0.2048,-0.1944,-0.1815,-0.1803,-0.1703,-0.1619,-0.1605,-0.159,-0.1636,-0.1613,-0.1738,-0.1783,-0.1436,-0.1436,-0.1436,-0.1436,-0.1436,-0.1436,-0.2669,-0.2553,-0.2544,-0.2227,-0.2161,-0.193,-0.1836,-0.1766,-0.1712,-0.1562,-0.152,-0.1536,-0.1574,-0.1684,-0.1582,-0.1502,-0.1493,-0.1427,-0.1486,-0.1604,-0.1637,-0.1667,-0.172,-0.1366,-0.1366,-0.128,-0.128,-0.1279]},{"header":{"parameterUnit":"m.s-1","parameterCategory":2,"la1":30.2991,"la2":30.254,"lo1":-89.0895,"lo2":-89.0444,"dy":0.0017,"dx":0.0017,"nx":28,"ny":28,"refTime":"2023-11-03T21:00:00:Z","depth":"0","parameterNumber":3,"parameterNumberName":"V-component_of_CURRENTS"},"data":[0,0,0,0,0,0,0,0,0,0,0,0,0,0,0,0,0,0,0,0,0,0,0,0,0,0,0,0,0,0,0,0,0,0,0,0,0,0,0,0,0,0,0,0,0,0,0,0,0,0,0,0,0,0,0,0,0,0,-0.0698,-0.0697,0,-0.0535,-0.0533,-0.0531,-0.0452,-0.0452,-0.0453,-0.0453,-0.02,-0.0193,-0.0186,0,0,0,0,0,0,0,0,0,0,0,0,0,-0.0799,-0.0798,-0.0698,-0.0697,-0.0695,-0.0536,-0.0533,-0.0531,-0.0452,-0.0452,-0.0453,-0.0453,-0.0202,-0.0194,-0.0185,0,0,0,0,0,0,0,0,0,0,0,0,0,-0.0704,-0.0798,-0.0699,-0.064,-0.0633,-0.0536,-0.0533,-0.053,-0.0452,-0.0452,-0.0453,-0.0454,-0.0205,-0.0195,-0.0184,-0.0105,0,0,-0.0151,-0.0147,0,0,0,0,0,0,0,0,-0.071,-0.07,-0.065,-0.0644,-0.0636,-0.0518,-0.0476,-0.0385,-0.0452,-0.0516,-0.0453,-0.0454,-0.03,-0.0282,-0.0245,-0.0093,-0.0082,-0.015,-0.0144,-0.0139,-0.0136,0,0,0,0,0,0,0,-0.0717,-0.0706,-0.0629,-0.0648,-0.064,-0.0573,-0.0561,-0.0458,-0.0401,-0.051,-0.0505,-0.0494,-0.0295,-0.0255,-0.0238,-0.0079,-0.0151,-0.0141,-0.0134,-0.013,0.0137,0.0138,0,0,0,0,0,0,-0.0752,-0.0713,-0.0635,-0.0625,-0.068,-0.0572,-0.0558,-0.0552,-0.0404,-0.0384,-0.0494,-0.0491,-0.0273,-0.0251,-0.0229,-0.0158,-0.0139,-0.0129,-0.0123,0.0136,0.0137,0.0138,0,0,0,0,0,0,-0.0755,-0.0747,-0.0641,-0.0668,-0.0651,-0.0571,-0.0564,-0.0549,-0.0512,-0.0393,-0.0371,-0.0474,-0.0273,-0.0244,-0.0144,-0.0146,-0.0124,-0.0115,0.0136,0.0137,0.0138,0.0005,0,0,0,0,0,0,-0.0759,-0.0749,-0.0752,-0.0671,-0.0651,-0.0588,-0.0563,-0.0545,-0.0506,-0.0501,-0.0368,-0.0346,-0.0271,-0.0161,-0.0134,-0.0131,-0.0106,0.0135,0.0136,0.0137,0.0008,0.0001,-0.0005,0,0,0,0,0,-0.0763,-0.0764,-0.0754,-0.0744,-0.066,-0.0588,-0.057,-0.0512,-0.0505,-0.0482,-0.0403,-0.035,-0.0134,-0.0151,-0.012,-0.0114,0.0134,0.0136,0.0137,0.0011,0.0003,-0.0005,0,0,0,0,0,0,-0.0801,-0.0754,-0.0741,-0.0727,-0.0667,-0.0577,-0.0552,-0.0517,-0.0436,-0.0433,-0.033,-0.03,-0.0215,-0.0139,-0.0161,-0.0032,0.0006,0.0014,-0.0101,-0.0108,-0.0114,-0.0144,-0.0097,0,0,0,0,0,-0.0817,-0.0813,-0.0746,-0.0735,-0.0709,-0.0634,-0.0599,-0.056,-0.0482,-0.0448,-0.036,-0.0266,-0.018,-0.0128,-0.0033,0.0046,0.0099,0.0069,0.0063,0.0056,0.0055,0.0106,0.0103,0.0143,0.0143,0.0143,0,0,-0.0833,-0.0804,-0.0803,-0.0744,-0.0694,-0.0662,-0.0613,-0.0564,-0.0536,-0.043,-0.0361,-0.0277,-0.0162,-0.0084,-0.0039,-0.0024,0.0076,0.0058,0.0051,0.0054,0.0107,0.0103,0.0099,0.0144,0.0144,0.0144,0,0,-0.0864,-0.0833,-0.0843,-0.0799,-0.0737,-0.0681,-0.0675,-0.0586,-0.0545,-0.0468,-0.0396,-0.0321,-0.0175,-0.0107,-0.0053,-0.0032,0.004,-0.0,-0.0057,-0.0009,-0.0013,-0.0015,0.0049,0.0053,-0.0007,-0.0007,-0.0007,0,-0.0888,-0.0886,-0.0829,-0.082,-0.079,-0.0701,-0.0691,-0.0629,-0.0521,-0.0493,-0.0462,-0.0284,-0.019,-0.0111,-0.0108,-0.005,-0.0007,-0.0045,-0.0022,-0.0024,-0.0024,0.0042,0.0048,-0.0013,-0.0013,-0.0012,-0.0011,0,-0.0924,-0.0918,-0.0911,-0.0879,-0.0835,-0.0803,-0.0722,-0.0674,-0.0618,-0.056,-0.0471,-0.0349,-0.0252,-0.0212,-0.0149,-0.0105,-0.0067,-0.0042,-0.0017,-0.0038,0.0036,0.0044,-0.0022,-0.002,-0.0018,-0.0017,0,0,-0.0997,-0.0951,-0.0953,-0.0945,-0.0863,-0.0829,-0.0785,-0.0716,-0.0699,-0.0594,-0.0563,-0.0423,-0.0371,-0.0306,-0.0221,-0.0174,-0.0138,-0.012,-0.0115,-0.0083,-0.0024,0.0045,0.0062,-0.0122,-0.0121,-0.0121,0.0028,0,-0.1043,-0.105,-0.1009,-0.1,-0.0985,-0.0901,-0.0868,-0.0798,-0.0725,-0.0667,-0.0555,-0.0479,-0.0403,-0.0362,-0.0307,-0.0168,-0.0121,-0.0179,0.0016,0.0022,0.0063,0.0072,0.0119,0.0259,0.0037,0.0038,0.004,0,-0.1104,-0.109,-0.1099,-0.1059,-0.1047,-0.103,-0.0966,-0.0925,-0.0828,-0.0775,-0.0695,-0.0597,-0.0486,-0.0433,-0.0237,-0.0281,-0.0169,-0.0071,-0.0062,0.0054,0.0107,0.0248,0.0284,0.0439,0.0054,0.0052,0.0051,0,-0.1184,-0.116,-0.1169,-0.1152,-0.1088,-0.1084,-0.1047,-0.0967,-0.0935,-0.0844,-0.0806,-0.0674,-0.0579,-0.0445,-0.0223,-0.0237,-0.001,-0.0002,0.0165,0.0172,0.0281,0.0296,0.0469,0.011,0.011,0.011,0.0109,0,-0.1252,-0.1258,-0.1211,-0.1214,-0.1223,-0.1157,-0.1158,-0.1108,-0.1038,-0.0991,-0.087,-0.0788,-0.058,-0.0412,-0.025,0.0003,-0.0026,0.0165,0.0214,0.024,0.0249,0.0445,0.0505,0.0115,0.0114,0.0113,0.0112,0,-0.1339,-0.1311,-0.1316,-0.1272,-0.1264,-0.1272,-0.1233,-0.1228,-0.1149,-0.1083,-0.1052,-0.0859,-0.0623,-0.0404,-0.0143,-0.0002,0.0322,0.0298,0.0325,0.0374,0.0654,0.0704,0.0932,0.1036,0.0495,0.0498,0.05,0,-0.1377,-0.1389,-0.1374,-0.1388,-0.1373,-0.137,-0.137,-0.1299,-0.1266,-0.1103,-0.1063,-0.0834,-0.0626,-0.0219,0.0061,0.0359,0.0463,0.0558,0.0538,0.069,0.0782,0.0797,0.0868,0.0638,0.0642,0.0644,0.0646,0,-0.1434,-0.1437,-0.1447,-0.1474,-0.1487,-0.1481,-0.1456,-0.1442,-0.1323,-0.1231,-0.1029,-0.0853,-0.044,-0.0049,0.0321,0.0484,0.068,0.0619,0.0772,0.0908,0.0944,0.106,0.0527,0.0669,0.0667,0.0665,0.0664,0.0663,-0.1475,-0.1507,-0.1525,-0.1546,-0.1555,-0.1538,-0.1518,-0.1447,-0.1354,-0.1118,-0.0991,-0.0641,-0.0146,0.0404,0.0596,0.0976,0.0908,0.1069,0.112,0.1124,0.1218,0.0741,0.0934,0.0933,0.0932,0.0932,0.0931,0,-0.1517,-0.1546,-0.1584,-0.159,-0.1582,-0.1576,-0.1524,-0.1443,-0.1283,-0.1024,-0.0779,-0.0181,0.0317,0.0755,0.1267,0.1463,0.149,0.1538,0.1571,0.1622,0.121,0.121,0.1477,0.1477,0.1476,0.1476,0.1476,0.1476,-0.1541,-0.1585,-0.1597,-0.1576,-0.1574,-0.1524,-0.1475,-0.1326,-0.1116,-0.0642,-0.0246,0.0054,0.0604,0.1395,0.1862,0.189,0.2056,0.2024,0.2118,0.1827,0.1787,0.1747,0.1763,0.2141,0.2142,0.2512,0.2516,0.2519]}],[{"header":{"parameterUnit":"m.s-1","parameterCategory":2,"la1":30.2991,"la2":30.254,"lo1":-89.0895,"lo2":-89.0444,"dy":0.0017,"dx":0.0017,"nx":28,"ny":28,"refTime":"2023-11-03T21:00:00:Z","depth":"2","parameterNumber":2,"parameterNumberName":"U-component_of_CURRENTS"},"data":[0,0,0,0,0,0,0,0,0,0,0,0,0,0,0,0,0,0,0,0,0,0,0,0,0,0,0,0,0,0,0,0,0,0,0,0,0,0,0,0,0,0,0,0,0,0,0,0,0,0,0,0,0,0,0,0,0,0,-0.236,-0.236,0,-0.2364,-0.2364,-0.2364,-0.2413,-0.2414,-0.2416,-0.2417,-0.2482,-0.2482,-0.2483,0,0,0,0,0,0,0,0,0,0,0,0,0,-0.2268,-0.2271,-0.236,-0.236,-0.236,-0.2364,-0.2364,-0.2364,-0.2413,-0.2414,-0.2416,-0.2417,-0.2482,-0.2482,-0.2483,0,0,0,0,0,0,0,0,0,0,0,0,0,-0.2294,-0.2271,-0.236,-0.2385,-0.2387,-0.2364,-0.2364,-0.2364,-0.2413,-0.2414,-0.2416,-0.2418,-0.2481,-0.2482,-0.2483,-0.2451,0,0,-0.2486,-0.2486,0,0,0,0,0,0,0,0,-0.2293,-0.2297,-0.2381,-0.2383,-0.2386,-0.239,-0.2356,-0.2396,-0.2412,-0.2403,-0.2417,-0.2419,-0.2456,-0.2459,-0.2454,-0.2454,-0.2457,-0.2486,-0.2486,-0.2487,-0.2487,0,0,0,0,0,0,0,-0.2291,-0.2297,-0.2362,-0.2381,-0.2384,-0.2353,-0.236,-0.2363,-0.242,-0.2404,-0.2407,-0.2407,-0.2458,-0.2453,-0.2456,-0.2458,-0.2486,-0.2487,-0.2487,-0.2487,-0.268,-0.2685,0,0,0,0,0,0,-0.2296,-0.2296,-0.2362,-0.2362,-0.2343,-0.2354,-0.2361,-0.2387,-0.2418,-0.2425,-0.2406,-0.241,-0.2451,-0.2455,-0.2459,-0.2563,-0.2487,-0.2487,-0.2488,-0.2676,-0.2681,-0.2686,0,0,0,0,0,0,-0.2294,-0.2303,-0.2361,-0.2327,-0.2333,-0.2354,-0.2382,-0.2386,-0.2425,-0.2419,-0.2427,-0.2446,-0.2452,-0.2458,-0.2557,-0.2561,-0.2488,-0.2489,-0.267,-0.2678,-0.2684,-0.2681,0,0,0,0,0,0,-0.2292,-0.2303,-0.2346,-0.2329,-0.2335,-0.2367,-0.238,-0.2385,-0.2419,-0.2426,-0.2455,-0.246,-0.2454,-0.2557,-0.2558,-0.256,-0.2489,-0.2665,-0.2674,-0.2682,-0.2675,-0.2687,-0.2697,0,0,0,0,0,-0.2289,-0.2351,-0.2349,-0.2357,-0.2387,-0.2367,-0.2368,-0.2387,-0.242,-0.2432,-0.251,-0.2462,-0.2612,-0.2561,-0.2562,-0.2564,-0.266,-0.2671,-0.2681,-0.267,-0.2685,-0.2697,0,0,0,0,0,0,-0.2332,-0.236,-0.2358,-0.2426,-0.24,-0.2377,-0.2413,-0.241,-0.2472,-0.2521,-0.2517,-0.2529,-0.261,-0.262,-0.2564,-0.2661,-0.2628,-0.2639,-0.262,-0.2633,-0.2644,-0.2606,-0.249,0,0,0,0,0,-0.2357,-0.2411,-0.2395,-0.2439,-0.2447,-0.2432,-0.244,-0.2448,-0.2484,-0.2514,-0.2549,-0.261,-0.2643,-0.267,-0.2708,-0.2755,-0.2707,-0.2769,-0.278,-0.2788,-0.2769,-0.2724,-0.2725,-0.272,-0.272,-0.272,0,0,-0.2372,-0.2402,-0.2426,-0.245,-0.2451,-0.2455,-0.2445,-0.2477,-0.2484,-0.2512,-0.2599,-0.2647,-0.2673,-0.2736,-0.2771,-0.2747,-0.2773,-0.2801,-0.2807,-0.2783,-0.2734,-0.2733,-0.2732,-0.2728,-0.2726,-0.2725,0,0,-0.2408,-0.247,-0.2512,-0.2477,-0.249,-0.2516,-0.2532,-0.2548,-0.2571,-0.2646,-0.2674,-0.2749,-0.2815,-0.2821,-0.2828,-0.293,-0.2834,-0.2951,-0.2954,-0.2911,-0.2908,-0.2904,-0.2845,-0.2837,-0.295,-0.295,-0.295,0,-0.242,-0.2465,-0.251,-0.2495,-0.2501,-0.2547,-0.2562,-0.2569,-0.262,-0.264,-0.2698,-0.2807,-0.2842,-0.2853,-0.2909,-0.2938,-0.2896,-0.2881,-0.2913,-0.2909,-0.2905,-0.2845,-0.2835,-0.2951,-0.2951,-0.2951,-0.2951,0,-0.2412,-0.2455,-0.2474,-0.2504,-0.2535,-0.2547,-0.2571,-0.2592,-0.2681,-0.271,-0.2786,-0.2856,-0.2896,-0.2935,-0.2953,-0.2946,-0.2918,-0.2921,-0.2847,-0.2902,-0.284,-0.2829,-0.2953,-0.2952,-0.2952,-0.2952,0,0,-0.2396,-0.2467,-0.2449,-0.2476,-0.2538,-0.2554,-0.2584,-0.2624,-0.2628,-0.2728,-0.2742,-0.2847,-0.2892,-0.2907,-0.2928,-0.2925,-0.2883,-0.2918,-0.2915,-0.2802,-0.2763,-0.2698,-0.268,-0.2871,-0.287,-0.2869,-0.2726,0,-0.2365,-0.2368,-0.2433,-0.247,-0.2509,-0.2534,-0.2553,-0.2592,-0.267,-0.2697,-0.2758,-0.2834,-0.287,-0.2908,-0.2895,-0.2899,-0.2856,-0.292,-0.2777,-0.2773,-0.2659,-0.2666,-0.2492,-0.2346,-0.2715,-0.2713,-0.2712,0,-0.2326,-0.2344,-0.2379,-0.2474,-0.2489,-0.2519,-0.2568,-0.2586,-0.2613,-0.2662,-0.2712,-0.2777,-0.2797,-0.2838,-0.2784,-0.2818,-0.2778,-0.278,-0.2773,-0.2697,-0.2688,-0.2359,-0.2312,-0.2693,-0.2694,-0.2696,-0.2697,0,-0.2291,-0.233,-0.2391,-0.2377,-0.2465,-0.2471,-0.2536,-0.2581,-0.26,-0.2648,-0.269,-0.2715,-0.2744,-0.2702,-0.2712,-0.2736,-0.2643,-0.2664,-0.255,-0.2544,-0.236,-0.2341,-0.2583,-0.2583,-0.2584,-0.2584,-0.2585,0,-0.2246,-0.2276,-0.2357,-0.2329,-0.2374,-0.2469,-0.2514,-0.2516,-0.2572,-0.2608,-0.2683,-0.2685,-0.2718,-0.2683,-0.2662,-0.2561,-0.2576,-0.2526,-0.2497,-0.2363,-0.2346,-0.2629,-0.2636,-0.2579,-0.258,-0.2581,-0.2582,0,-0.2201,-0.225,-0.2295,-0.2343,-0.2366,-0.2391,-0.2484,-0.2485,-0.256,-0.258,-0.2608,-0.2653,-0.261,-0.2604,-0.2546,-0.2494,-0.2425,-0.2376,-0.2218,-0.2173,-0.236,-0.237,-0.2214,-0.2211,-0.2208,-0.2205,-0.2203,0,-0.2177,-0.2198,-0.2244,-0.225,-0.2275,-0.2327,-0.2343,-0.2446,-0.2474,-0.2542,-0.254,-0.254,-0.2482,-0.2376,-0.2304,-0.2195,-0.2304,-0.1988,-0.2014,-0.2332,-0.2319,-0.2334,-0.2348,-0.1766,-0.1761,-0.1756,-0.1753,0,-0.2107,-0.2139,-0.2145,-0.213,-0.2163,-0.2194,-0.2248,-0.2264,-0.2371,-0.2379,-0.2367,-0.2335,-0.2258,-0.2076,-0.198,-0.1911,-0.2001,-0.1892,-0.2221,-0.1912,-0.1904,-0.1895,-0.1923,-0.1712,-0.1716,-0.1719,-0.1722,-0.1723,-0.2036,-0.2022,-0.2016,-0.2006,-0.2042,-0.2039,-0.2011,-0.2076,-0.2078,-0.2058,-0.2117,-0.1997,-0.1986,-0.1733,-0.1636,-0.1576,-0.1718,-0.1652,-0.1667,-0.1687,-0.1686,-0.1676,-0.1438,-0.1441,-0.1443,-0.1445,-0.1446,0,-0.1898,-0.1896,-0.1879,-0.1866,-0.1845,-0.1896,-0.1915,-0.1863,-0.1805,-0.1794,-0.1738,-0.1527,-0.1395,-0.1399,-0.1231,-0.1206,-0.1214,-0.117,-0.1177,-0.1217,-0.1253,-0.1232,-0.0863,-0.0861,-0.086,-0.0858,0,0,-0.1822,-0.1754,-0.1741,-0.1656,-0.1656,-0.1564,-0.1536,-0.1481,-0.1444,-0.1316,-0.1236,-0.1286,-0.1326,-0.1079,-0.1033,-0.0914,-0.1056,-0.0871,-0.1335,-0.138,-0.1414,-0.1522,-0.1534,0,0,0,0,0]},{"header":{"parameterUnit":"m.s-1","parameterCategory":2,"la1":30.2991,"la2":30.254,"lo1":-89.0895,"lo2":-89.0444,"dy":0.0017,"dx":0.0017,"nx":28,"ny":28,"refTime":"2023-11-03T21:00:00:Z","depth":"2","parameterNumber":3,"parameterNumberName":"V-component_of_CURRENTS"},"data":[0,0,0,0,0,0,0,0,0,0,0,0,0,0,0,0,0,0,0,0,0,0,0,0,0,0,0,0,0,0,0,0,0,0,0,0,0,0,0,0,0,0,0,0,0,0,0,0,0,0,0,0,0,0,0,0,0,0,-0.0118,-0.0118,0,-0.0029,-0.0028,-0.0026,0.0049,0.005,0.005,0.0051,0.0197,0.02,0.0204,0,0,0,0,0,0,0,0,0,0,0,0,0,-0.017,-0.0169,-0.0119,-0.0118,-0.0117,-0.0029,-0.0028,-0.0026,0.0049,0.005,0.0051,0.0051,0.0196,0.02,0.0204,0,0,0,0,0,0,0,0,0,0,0,0,0,-0.0119,-0.0169,-0.0119,-0.007,-0.0065,-0.0029,-0.0027,-0.0026,0.0049,0.005,0.0051,0.0052,0.0195,0.02,0.0204,0.0215,0,0,0.0219,0.0222,0,0,0,0,0,0,0,0,-0.0122,-0.0117,-0.0078,-0.0073,-0.0067,-0.0002,0.0008,0.0057,0.0049,0.0008,0.0051,0.0052,0.0134,0.0144,0.016,0.0222,0.0228,0.022,0.0223,0.0225,0.0226,0,0,0,0,0,0,0,-0.0126,-0.012,-0.0081,-0.0077,-0.0071,-0.0034,-0.0026,0.0018,0.0067,0.0011,0.0016,0.0023,0.0138,0.0155,0.0165,0.023,0.022,0.0224,0.0227,0.0229,0.036,0.0361,0,0,0,0,0,0,-0.0144,-0.0124,-0.0084,-0.0079,-0.0095,-0.0034,-0.0025,-0.0022,0.0065,0.0078,0.0022,0.0026,0.0147,0.0159,0.017,0.0221,0.0225,0.023,0.0232,0.036,0.0361,0.0361,0,0,0,0,0,0,-0.0146,-0.0142,-0.0088,-0.01,-0.0091,-0.0035,-0.0032,-0.0021,0.0002,0.0073,0.0088,0.0034,0.0148,0.0163,0.0231,0.0226,0.0232,0.0236,0.0359,0.036,0.0361,0.0301,0,0,0,0,0,0,-0.0148,-0.0143,-0.015,-0.0102,-0.0091,-0.0078,-0.0033,-0.002,0.0003,0.001,0.0088,0.0102,0.015,0.0224,0.0236,0.0233,0.024,0.0359,0.036,0.0361,0.0303,0.03,0.0298,0,0,0,0,0,-0.015,-0.0166,-0.0151,-0.0147,-0.0102,-0.008,-0.0071,-0.0026,0.0003,0.0001,0.0078,0.01,0.0238,0.0229,0.0243,0.0241,0.0358,0.0359,0.0361,0.0304,0.03,0.0298,0,0,0,0,0,0,-0.0198,-0.0158,-0.0142,-0.0146,-0.0121,-0.0068,-0.0061,-0.0031,0.0026,0.0047,0.0115,0.0134,0.0184,0.0226,0.0214,0.0283,0.0298,0.0302,0.025,0.0247,0.0245,0.0235,0.0244,0,0,0,0,0,-0.0213,-0.0214,-0.0171,-0.0181,-0.0163,-0.0113,-0.0098,-0.0064,-0.0008,0.0018,0.0078,0.0146,0.0198,0.0235,0.0282,0.0328,0.0351,0.0335,0.0332,0.033,0.0333,0.0342,0.0339,0.0365,0.0365,0.0365,0,0,-0.024,-0.0216,-0.0221,-0.0191,-0.016,-0.0148,-0.01,-0.0075,-0.0052,0.0026,0.0083,0.0135,0.0206,0.0256,0.0282,0.0295,0.034,0.0331,0.0329,0.0333,0.0342,0.034,0.0337,0.0366,0.0366,0.0366,0,0,-0.0293,-0.0266,-0.028,-0.0261,-0.0219,-0.0176,-0.0172,-0.0111,-0.0066,-0.0007,0.0052,0.0114,0.0193,0.0248,0.0284,0.03,0.0318,0.0302,0.0292,0.03,0.0297,0.0295,0.0336,0.0337,0.031,0.031,0.031,0,-0.0327,-0.0335,-0.0285,-0.029,-0.0276,-0.0193,-0.0199,-0.0143,-0.0066,-0.0033,0.0007,0.0121,0.0193,0.0243,0.0266,0.0293,0.0302,0.0293,0.0294,0.0292,0.0291,0.0333,0.0336,0.0307,0.0307,0.0308,0.0308,0,-0.0387,-0.0391,-0.0395,-0.0368,-0.0345,-0.0336,-0.0254,-0.0212,-0.0138,-0.0082,-0.0012,0.0089,0.0151,0.0185,0.0246,0.0267,0.0279,0.0276,0.0292,0.0284,0.033,0.0334,0.0303,0.0304,0.0305,0.0306,0,0,-0.0467,-0.0443,-0.0445,-0.0447,-0.0382,-0.0369,-0.0317,-0.0254,-0.0225,-0.0127,-0.0097,0.003,0.0077,0.0123,0.0187,0.0229,0.026,0.0255,0.0256,0.0281,0.0288,0.0337,0.0346,0.0236,0.0236,0.0236,0.0328,0,-0.0527,-0.0557,-0.0521,-0.0538,-0.0537,-0.0456,-0.042,-0.0349,-0.0262,-0.0206,-0.009,-0.0035,0.0053,0.0079,0.0135,0.0223,0.0265,0.0237,0.0306,0.031,0.034,0.035,0.032,0.0402,0.0332,0.0333,0.0334,0,-0.0603,-0.0598,-0.0633,-0.0611,-0.0602,-0.0601,-0.0532,-0.0491,-0.0383,-0.0317,-0.0242,-0.0158,-0.0055,0.0003,0.0146,0.0114,0.02,0.0273,0.0277,0.0345,0.0365,0.0399,0.0412,0.0341,0.034,0.034,0.0339,0,-0.0683,-0.0686,-0.0711,-0.0708,-0.0661,-0.0661,-0.0629,-0.0536,-0.0495,-0.0405,-0.0368,-0.0252,-0.0184,-0.008,0.0117,0.0111,0.0267,0.0267,0.0391,0.0396,0.0401,0.0406,0.0341,0.0341,0.0341,0.0341,0.034,0,-0.0764,-0.0787,-0.0758,-0.0772,-0.079,-0.0739,-0.074,-0.0685,-0.0612,-0.0568,-0.0446,-0.0382,-0.0206,-0.0077,0.0073,0.0264,0.0227,0.0399,0.0419,0.0384,0.0386,0.0352,0.0353,0.0344,0.0343,0.0343,0.0342,0,-0.0851,-0.0841,-0.0867,-0.0836,-0.0835,-0.0849,-0.0819,-0.0806,-0.0733,-0.068,-0.0658,-0.0482,-0.0303,-0.0113,0.0088,0.0216,0.0381,0.0449,0.0423,0.0439,0.0516,0.0512,0.0584,0.0586,0.0588,0.059,0.0591,0,-0.0897,-0.0923,-0.0919,-0.0933,-0.0927,-0.0936,-0.0933,-0.0874,-0.0847,-0.072,-0.0693,-0.052,-0.0347,-0.0024,0.0205,0.0451,0.0446,0.0553,0.0545,0.0527,0.0539,0.0532,0.0525,0.0537,0.0538,0.0539,0.0539,0,-0.0958,-0.0966,-0.0977,-0.1002,-0.1022,-0.1032,-0.1025,-0.1021,-0.0931,-0.0852,-0.0701,-0.0562,-0.0243,0.0046,0.0346,0.0476,0.0511,0.0576,0.0544,0.0482,0.049,0.05,0.0494,0.0546,0.0545,0.0545,0.0544,0.0544,-0.0998,-0.1024,-0.1041,-0.1066,-0.1091,-0.1106,-0.1103,-0.1054,-0.0992,-0.0821,-0.0706,-0.0436,-0.0203,0.0267,0.0453,0.0616,0.0612,0.0653,0.0647,0.0641,0.062,0.0632,0.0712,0.0712,0.0713,0.0713,0.0713,0,-0.1033,-0.1061,-0.1092,-0.1125,-0.1157,-0.1151,-0.1136,-0.1081,-0.0975,-0.0771,-0.0576,-0.0265,0.0042,0.0284,0.0563,0.0718,0.068,0.0724,0.0648,0.0641,0.0635,0.061,0.0702,0.0702,0.0703,0.0703,0,0,-0.1056,-0.1091,-0.1102,-0.1157,-0.1186,-0.1194,-0.1175,-0.1048,-0.0886,-0.0633,-0.0405,-0.0163,0.0107,0.0303,0.0471,0.0609,0.0581,0.0606,0.0598,0.048,0.0472,0.0575,0.0528,0,0,0,0,0]}],[{"header":{"parameterUnit":"m.s-1","parameterCategory":2,"la1":30.2991,"la2":30.254,"lo1":-89.0895,"lo2":-89.0444,"dy":0.0017,"dx":0.0017,"nx":28,"ny":28,"refTime":"2023-11-03T21:00:00:Z","depth":"4","parameterNumber":2,"parameterNumberName":"U-component_of_CURRENTS"},"data":[0,0,0,0,0,0,0,0,0,0,0,0,0,0,0,0,0,0,0,0,0,0,0,0,0,0,0,0,0,0,0,0,0,0,0,0,0,0,0,0,0,0,0,0,0,0,0,0,0,0,0,0,0,0,0,0,0,0,-0.1029,-0.1031,0,-0.1113,-0.1114,-0.1114,-0.1146,-0.1146,-0.1146,-0.1146,-0.1229,-0.1232,-0.1234,0,0,0,0,0,0,0,0,0,0,0,0,0,-0.0925,-0.0926,-0.1029,-0.1031,-0.1032,-0.1113,-0.1114,-0.1115,-0.1146,-0.1146,-0.1146,-0.1146,-0.1229,-0.1231,-0.1234,0,0,0,0,0,0,0,0,0,0,0,0,0,-0.0982,-0.0927,-0.1029,-0.106,-0.1064,-0.1113,-0.1114,-0.1115,-0.1146,-0.1146,-0.1146,-0.1146,-0.1228,-0.1231,-0.1234,-0.1252,0,0,-0.1244,-0.1246,0,0,0,0,0,0,0,0,-0.0979,-0.0986,-0.1054,-0.1058,-0.1062,-0.1122,-0.1108,-0.1162,-0.1146,-0.1111,-0.1146,-0.1146,-0.1196,-0.1202,-0.1212,-0.1256,-0.126,-0.1244,-0.1246,-0.1248,-0.1249,0,0,0,0,0,0,0,-0.0975,-0.0982,-0.1059,-0.1056,-0.1061,-0.108,-0.1087,-0.1118,-0.1149,-0.1114,-0.1117,-0.1132,-0.1198,-0.1209,-0.1214,-0.1261,-0.1244,-0.1247,-0.1249,-0.125,-0.1376,-0.1377,0,0,0,0,0,0,-0.097,-0.0979,-0.1056,-0.1062,-0.1024,-0.1082,-0.109,-0.11,-0.1149,-0.1158,-0.1132,-0.1134,-0.1203,-0.1211,-0.1218,-0.1293,-0.1248,-0.1251,-0.1253,-0.1374,-0.1376,-0.1377,0,0,0,0,0,0,-0.0968,-0.0976,-0.1053,-0.1025,-0.1037,-0.1083,-0.1095,-0.1102,-0.113,-0.1163,-0.1171,-0.1155,-0.1204,-0.1213,-0.1272,-0.1295,-0.1252,-0.1255,-0.1373,-0.1375,-0.1377,-0.1412,0,0,0,0,0,0,-0.0964,-0.0974,-0.0984,-0.1025,-0.1038,-0.1092,-0.1095,-0.1103,-0.114,-0.1143,-0.1186,-0.1193,-0.1205,-0.1267,-0.1275,-0.1298,-0.1258,-0.1371,-0.1374,-0.1376,-0.1409,-0.1415,-0.142,0,0,0,0,0,-0.096,-0.0972,-0.0984,-0.0994,-0.1048,-0.1093,-0.1102,-0.1133,-0.1141,-0.1157,-0.1197,-0.1192,-0.1289,-0.1272,-0.1281,-0.1305,-0.137,-0.1373,-0.1376,-0.1407,-0.1414,-0.142,0,0,0,0,0,0,-0.0932,-0.0978,-0.0992,-0.1017,-0.1058,-0.11,-0.1121,-0.1143,-0.1185,-0.1195,-0.1218,-0.1229,-0.1285,-0.1294,-0.1274,-0.1348,-0.1325,-0.133,-0.1345,-0.1352,-0.1358,-0.1345,-0.126,0,0,0,0,0,-0.0931,-0.0948,-0.0999,-0.1018,-0.1042,-0.1084,-0.1108,-0.1134,-0.1176,-0.1195,-0.123,-0.1266,-0.1302,-0.1327,-0.1358,-0.1405,-0.1418,-0.1424,-0.143,-0.1434,-0.143,-0.1489,-0.15,-0.1388,-0.1388,-0.1388,0,0,-0.0925,-0.0951,-0.0962,-0.1013,-0.1045,-0.1092,-0.1098,-0.1143,-0.1181,-0.1198,-0.1262,-0.129,-0.132,-0.1372,-0.1397,-0.1385,-0.1473,-0.1438,-0.1442,-0.1435,-0.1494,-0.1505,-0.1514,-0.139,-0.1389,-0.1389,0,0,-0.0927,-0.0948,-0.0972,-0.1013,-0.1071,-0.1101,-0.1119,-0.118,-0.1205,-0.127,-0.1289,-0.133,-0.1395,-0.1414,-0.1432,-0.1486,-0.15,-0.1503,-0.1524,-0.1582,-0.1591,-0.16,-0.1626,-0.1637,-0.1506,-0.1506,-0.1507,0,-0.0921,-0.0956,-0.0986,-0.1031,-0.1069,-0.1109,-0.1157,-0.119,-0.1263,-0.1296,-0.1296,-0.1395,-0.1408,-0.1469,-0.1483,-0.1496,-0.1531,-0.1496,-0.1589,-0.1598,-0.1606,-0.1631,-0.1642,-0.1509,-0.1508,-0.1508,-0.1508,0,-0.0947,-0.0987,-0.1006,-0.1072,-0.1119,-0.116,-0.1222,-0.1271,-0.1308,-0.1345,-0.1418,-0.1442,-0.1501,-0.1507,-0.1511,-0.1578,-0.1585,-0.1589,-0.157,-0.1619,-0.1642,-0.1654,-0.1512,-0.1511,-0.151,-0.151,0,0,-0.0898,-0.1003,-0.101,-0.1065,-0.1144,-0.1195,-0.1258,-0.1333,-0.1395,-0.1438,-0.1511,-0.1542,-0.156,-0.1579,-0.159,-0.1624,-0.1695,-0.1635,-0.1637,-0.1656,-0.1823,-0.1652,-0.1647,-0.1737,-0.1739,-0.1741,-0.1814,0,-0.0907,-0.1002,-0.1042,-0.1137,-0.1203,-0.1263,-0.1326,-0.1404,-0.1461,-0.1543,-0.1557,-0.1626,-0.1587,-0.1627,-0.1654,-0.1701,-0.1729,-0.1674,-0.1776,-0.1777,-0.1616,-0.1655,-0.1748,-0.1822,-0.1825,-0.1827,-0.1828,0,-0.0919,-0.0986,-0.1085,-0.1207,-0.1239,-0.1304,-0.1431,-0.149,-0.1593,-0.1639,-0.1696,-0.172,-0.1769,-0.1732,-0.1809,-0.179,-0.1803,-0.1817,-0.1821,-0.1653,-0.1626,-0.1765,-0.1848,-0.1846,-0.1845,-0.1843,-0.1842,0,-0.0896,-0.1015,-0.1098,-0.1141,-0.1282,-0.1344,-0.1416,-0.1531,-0.1597,-0.171,-0.1774,-0.1829,-0.1877,-0.1907,-0.1894,-0.189,-0.1969,-0.1972,-0.1821,-0.181,-0.1927,-0.1917,-0.202,-0.202,-0.202,-0.202,-0.202,0,-0.0891,-0.0962,-0.1109,-0.1158,-0.128,-0.1371,-0.1488,-0.1573,-0.1687,-0.1765,-0.1824,-0.1875,-0.1931,-0.1963,-0.1948,-0.1897,-0.2013,-0.182,-0.1818,-0.1939,-0.193,-0.1935,-0.1924,-0.2023,-0.2022,-0.2021,-0.2021,0,-0.0874,-0.095,-0.107,-0.1224,-0.128,-0.138,-0.1533,-0.1612,-0.1721,-0.1829,-0.1865,-0.1954,-0.1975,-0.1983,-0.2031,-0.1952,-0.1929,-0.1878,-0.1988,-0.1993,-0.1725,-0.1716,-0.1747,-0.1742,-0.1737,-0.1733,-0.173,0,-0.0887,-0.0944,-0.1119,-0.119,-0.1267,-0.1409,-0.1497,-0.1627,-0.17,-0.1844,-0.1885,-0.1947,-0.1972,-0.1892,-0.1915,-0.1865,-0.1824,-0.1816,-0.1769,-0.1703,-0.1699,-0.1697,-0.1693,-0.1723,-0.1722,-0.1721,-0.1719,0,-0.091,-0.0966,-0.1048,-0.119,-0.1301,-0.1416,-0.1542,-0.1586,-0.1714,-0.1833,-0.1839,-0.1816,-0.1828,-0.1797,-0.1752,-0.1717,-0.1829,-0.1768,-0.1777,-0.1733,-0.1674,-0.1674,-0.1676,-0.1703,-0.1706,-0.1707,-0.1708,0,-0.0913,-0.0968,-0.1056,-0.1173,-0.1303,-0.1376,-0.1451,-0.1515,-0.1588,-0.1729,-0.1723,-0.1755,-0.1821,-0.172,-0.1686,-0.1621,-0.1597,-0.155,-0.157,-0.1588,-0.149,-0.1388,-0.1327,0,0,0,0,0,-0.0909,-0.0928,-0.1034,-0.1136,-0.1256,-0.1316,-0.146,-0.1521,-0.1646,-0.161,-0.1653,-0.1633,-0.1562,-0.1581,-0.1474,-0.1611,-0.1607,-0.1482,-0.1566,-0.1615,-0.1634,-0.1525,0,0,0,0,0,0,-0.0879,-0.0956,-0.0999,-0.1077,-0.1125,-0.1236,-0.1308,-0.139,-0.1371,-0.1488,-0.1451,-0.1528,-0.1477,-0.1582,-0.1436,-0.1438,-0.1457,-0.1505,-0.15,-0.1605,-0.1621,-0.1636,-0.1531,0,0,0,0,0]},{"header":{"parameterUnit":"m.s-1","parameterCategory":2,"la1":30.2991,"la2":30.254,"lo1":-89.0895,"lo2":-89.0444,"dy":0.0017,"dx":0.0017,"nx":28,"ny":28,"refTime":"2023-11-03T21:00:00:Z","depth":"4","parameterNumber":3,"parameterNumberName":"V-component_of_CURRENTS"},"data":[0,0,0,0,0,0,0,0,0,0,0,0,0,0,0,0,0,0,0,0,0,0,0,0,0,0,0,0,0,0,0,0,0,0,0,0,0,0,0,0,0,0,0,0,0,0,0,0,0,0,0,0,0,0,0,0,0,0,-0.0246,-0.0245,0,-0.0218,-0.0218,-0.0217,-0.0178,-0.0178,-0.0177,-0.0177,-0.0115,-0.0114,-0.0112,0,0,0,0,0,0,0,0,0,0,0,0,0,-0.0216,-0.0217,-0.0246,-0.0245,-0.0245,-0.0218,-0.0218,-0.0217,-0.0178,-0.0178,-0.0177,-0.0176,-0.0115,-0.0114,-0.0112,0,0,0,0,0,0,0,0,0,0,0,0,0,-0.0212,-0.0217,-0.0246,-0.0224,-0.0221,-0.0218,-0.0218,-0.0217,-0.0178,-0.0178,-0.0177,-0.0176,-0.0116,-0.0114,-0.0112,-0.0117,0,0,-0.0107,-0.0106,0,0,0,0,0,0,0,0,-0.0212,-0.0212,-0.0227,-0.0225,-0.0223,-0.0202,-0.0185,-0.0182,-0.0179,-0.0193,-0.0177,-0.0176,-0.0142,-0.0138,-0.0133,-0.0114,-0.0112,-0.0107,-0.0106,-0.0105,-0.0104,0,0,0,0,0,0,0,-0.0212,-0.0213,-0.0233,-0.0227,-0.0224,-0.0199,-0.0197,-0.0184,-0.0171,-0.0192,-0.0189,-0.0189,-0.0141,-0.0135,-0.0131,-0.0111,-0.0107,-0.0105,-0.0104,-0.0104,-0.008,-0.0081,0,0,0,0,0,0,-0.0223,-0.0214,-0.0234,-0.0232,-0.0217,-0.02,-0.0199,-0.0208,-0.0171,-0.0166,-0.019,-0.0187,-0.0138,-0.0134,-0.0129,-0.0123,-0.0105,-0.0103,-0.0102,-0.008,-0.008,-0.0081,0,0,0,0,0,0,-0.0222,-0.0225,-0.0235,-0.0223,-0.0223,-0.0202,-0.0213,-0.0208,-0.0203,-0.0171,-0.0164,-0.019,-0.0138,-0.0132,-0.0117,-0.012,-0.0103,-0.0101,-0.0079,-0.008,-0.0081,-0.0116,0,0,0,0,0,0,-0.0222,-0.0225,-0.0236,-0.0224,-0.0224,-0.0241,-0.0214,-0.0208,-0.0205,-0.0202,-0.0169,-0.0162,-0.0136,-0.012,-0.0116,-0.0117,-0.01,-0.0079,-0.008,-0.008,-0.0114,-0.0118,-0.0121,0,0,0,0,0,-0.0221,-0.0246,-0.0237,-0.024,-0.024,-0.0242,-0.024,-0.022,-0.0206,-0.0211,-0.0184,-0.0163,-0.0122,-0.0119,-0.0114,-0.0115,-0.0078,-0.0079,-0.008,-0.0113,-0.0117,-0.0121,0,0,0,0,0,0,-0.0239,-0.0244,-0.0234,-0.0259,-0.0252,-0.0236,-0.0241,-0.0227,-0.021,-0.0206,-0.0169,-0.0161,-0.0151,-0.0132,-0.013,-0.0112,-0.0097,-0.0097,-0.0123,-0.0127,-0.013,-0.0129,-0.0098,0,0,0,0,0,-0.0249,-0.0268,-0.0261,-0.0279,-0.0278,-0.026,-0.0258,-0.0247,-0.0231,-0.0223,-0.0197,-0.0171,-0.0151,-0.0138,-0.0121,-0.0113,-0.0068,-0.011,-0.0113,-0.0116,-0.0113,-0.0032,-0.0027,-0.0084,-0.0084,-0.0084,0,0,-0.026,-0.0265,-0.0275,-0.0284,-0.0275,-0.028,-0.0256,-0.0262,-0.0262,-0.022,-0.021,-0.0185,-0.0153,-0.0141,-0.0134,-0.0124,-0.0082,-0.0117,-0.012,-0.0114,-0.0032,-0.0026,-0.0021,-0.0085,-0.0084,-0.0084,0,0,-0.0292,-0.0296,-0.032,-0.0317,-0.0315,-0.0304,-0.0309,-0.0295,-0.0284,-0.028,-0.0243,-0.0217,-0.0198,-0.0162,-0.0145,-0.0157,-0.0104,-0.0157,-0.0167,-0.0089,-0.0083,-0.0077,-0.0031,-0.002,-0.0154,-0.0155,-0.0155,0,-0.03,-0.0329,-0.0325,-0.034,-0.0338,-0.0317,-0.033,-0.032,-0.0302,-0.0284,-0.0285,-0.0224,-0.0205,-0.0162,-0.0171,-0.0163,-0.0117,-0.0154,-0.0091,-0.0084,-0.0078,-0.0031,-0.0019,-0.0156,-0.0156,-0.0156,-0.0156,0,-0.0342,-0.036,-0.0373,-0.0382,-0.0382,-0.0392,-0.0376,-0.0368,-0.0354,-0.0331,-0.0296,-0.0262,-0.0216,-0.0213,-0.0201,-0.0145,-0.0129,-0.0106,-0.0078,-0.0074,-0.0026,-0.0012,-0.0159,-0.0158,-0.0158,-0.0157,0,0,-0.036,-0.0397,-0.0399,-0.0408,-0.0404,-0.0409,-0.0405,-0.0385,-0.0367,-0.0345,-0.0309,-0.0281,-0.0244,-0.0222,-0.0189,-0.0134,-0.0065,-0.0107,-0.0102,-0.0056,0.0094,0.0069,0.0081,-0.0021,-0.0018,-0.0017,0.0103,0,-0.0386,-0.0434,-0.0439,-0.0463,-0.0477,-0.0452,-0.0446,-0.0422,-0.0395,-0.0354,-0.03,-0.0264,-0.0251,-0.0229,-0.0168,-0.009,-0.0029,-0.0101,0.0079,0.0084,0.0066,0.0096,-0.0009,0.0113,0.0116,0.0119,0.012,0,-0.042,-0.0441,-0.0486,-0.0497,-0.0499,-0.0509,-0.048,-0.0473,-0.0406,-0.0378,-0.0315,-0.0268,-0.0192,-0.0183,-0.003,-0.0073,0.0006,0.0066,0.0073,0.0074,0.0084,0.0113,0.0145,0.0143,0.0141,0.0139,0.0138,0,-0.0438,-0.0473,-0.0514,-0.0517,-0.0524,-0.053,-0.0526,-0.0479,-0.0465,-0.0387,-0.0357,-0.0251,-0.0205,-0.0082,0.0021,0.0011,0.0193,0.0202,0.0257,0.0255,0.0258,0.0251,0.0328,0.0328,0.0328,0.0327,0.0327,0,-0.0464,-0.049,-0.053,-0.0544,-0.0571,-0.0561,-0.0567,-0.0539,-0.0488,-0.046,-0.0372,-0.0318,-0.0175,-0.0063,0.0042,0.0183,0.022,0.0264,0.0295,0.0235,0.0224,0.0267,0.0258,0.0332,0.0331,0.033,0.0329,0,-0.0485,-0.0515,-0.0555,-0.0577,-0.059,-0.0609,-0.0618,-0.061,-0.0555,-0.0512,-0.0489,-0.0358,-0.021,-0.007,0.0126,0.0195,0.0339,0.0383,0.0292,0.0313,0.0344,0.0332,0.0465,0.0465,0.0466,0.0466,0.0466,0,-0.0504,-0.0532,-0.0589,-0.0621,-0.0641,-0.0667,-0.0683,-0.0651,-0.0632,-0.0533,-0.0504,-0.0364,-0.0265,0.0003,0.014,0.0351,0.0372,0.0436,0.0402,0.0347,0.0363,0.0351,0.0338,0.0467,0.0467,0.0467,0.0467,0,-0.0518,-0.0551,-0.0585,-0.0659,-0.07,-0.0733,-0.0746,-0.0734,-0.0677,-0.0633,-0.0488,-0.0346,-0.0181,0.001,0.0165,0.0314,0.0389,0.0439,0.044,0.0409,0.035,0.0363,0.0351,0.0468,0.0468,0.0468,0.0468,0,-0.0528,-0.0563,-0.0626,-0.0686,-0.0747,-0.0779,-0.078,-0.0735,-0.0702,-0.0579,-0.0532,-0.0337,-0.0223,-0.0007,0.0142,0.0276,0.0306,0.0338,0.0344,0.0344,0.026,0.0165,0.0265,0,0,0,0,0,-0.0531,-0.058,-0.0646,-0.0714,-0.0778,-0.0808,-0.0813,-0.0795,-0.0737,-0.0637,-0.0576,-0.041,-0.0166,-0.0049,0.0085,0.0117,0.0299,0.0273,0.0331,0.0473,0.0472,0.0391,0,0,0,0,0,0,-0.0536,-0.0603,-0.0645,-0.0728,-0.0777,-0.0834,-0.0837,-0.0798,-0.0719,-0.0638,-0.0495,-0.0399,-0.0157,-0.0243,0.0081,0.0122,0.0171,0.0397,0.0399,0.0474,0.0473,0.0472,0.0388,0,0,0,0,0]}]]